Theta_e
320 320 320 320 320 321 320 321 321 321 321 321 322 322 322 322 322 323 323 323 323 323 323 324 325 325 326 326 327 327 326 328 328 320 319 327 341 353 357 359 357 364 362 323 322 323 324 326 325 329 327 325 324 324 326 329 329 327 319 317 314 317 318 324 323 325 329 327 331 335 335 335 331 336 339 343 339 338 340 342 342 345 346 347 348 349 346 347
320 320 320 320 320 320 321 320 321 320 321 321 321 322 321 321 322 322 322 322 322 323 323 324 324 325 326 326 327 328 327 330 323 320 320 356 359 361 362 365 360 360 353 320 322 323 324 323 324 326 324 322 326 324 327 323 327 319 318 318 314 318 321 328 328 331 329 328 333 334 335 333 334 337 339 334 336 339 338 340 344 341 342 344 347 347 345 346
319 319 320 320 320 320 320 320 320 320 320 320 321 321 321 321 321 321 322 322 322 322 323 324 324 325 326 327 327 327 328 326 327 322 323 351 355 360 360 362 363 352 322 319 323 325 324 324 324 324 325 322 322 322 326 322 324 320 319 317 317 322 324 329 334 333 337 334 332 332 333 333 335 338 338 332 334 339 338 337 341 339 339 341 343 343 344 342
319 319 319 320 320 320 320 320 320 320 320 320 320 320 321 321 321 321 321 322 322 322 323 324 324 325 327 327 327 327 328 330 324 325 332 358 356 358 365 351 367 354 326 322 323 325 327 326 325 325 323 321 321 324 321 323 321 321 320 318 321 325 325 328 333 335 336 334 333 336 335 332 336 337 333 334 332 333 339 342 342 340 342 340 343 343 342 341
319 319 319 319 320 320 320 320 320 320 319 319 320 320 320 320 320 320 321 321 321 322 323 324 325 326 326 327 325 328 327 319 323 334 348 356 358 362 355 363 356 326 324 325 326 327 326 325 324 324 322 319 320 321 322 324 325 322 318 322 323 323 321 326 328 334 336 338 337 331 330 334 341 338 333 330 328 328 337 343 344 345 345 342 342 342 342 342
319 319 319 319 319 320 319 319 319 319 319 319 319 320 320 320 320 320 320 321 321 322 323 324 325 326 326 326 326 327 323 309 329 332 360 359 360 358 362 362 358 334 321 321 324 326 324 324 324 321 321 318 319 316 320 322 324 316 320 322 324 326 324 326 329 338 338 332 330 329 333 334 333 333 333 332 330 334 340 342 341 343 346 343 344 342 342 341
319 319 319 319 319 319 319 319 319 319 319 319 319 319 320 319 319 320 320 321 321 322 324 324 325 326 326 325 332 327 321 323 330 336 355 366 359 354 358 355 361 323 320 321 325 324 325 323 323 321 320 319 318 318 317 320 322 319 316 321 319 323 323 326 332 342 333 333 333 338 341 328 331 326 332 330 331 335 340 343 343 345 347 343 341 342 342 343
319 319 319 318 319 319 319 319 319 319 319 319 319 319 319 319 319 320 320 321 321 323 324 324 325 326 326 328 321 324 326 325 333 339 356 355 350 340 348 325 324 324 324 325 325 324 324 322 320 322 319 317 314 318 319 320 320 316 317 322 323 325 325 325 330 332 341 339 340 338 331 328 329 326 331 329 332 335 338 342 343 345 345 343 340 342 342 342
319 318 318 318 319 319 319 319 319 319 319 319 319 319 319 319 319 320 320 321 322 323 324 325 325 326 326 327 328 322 321 333 337 335 341 336 332 325 326 322 326 326 327 326 327 325 324 321 322 322 317 317 320 318 319 317 313 318 318 323 322 321 323 326 330 333 336 337 339 334 336 335 330 334 328 331 333 335 339 339 341 343 341 343 341 343 342 341
318 318 319 318 319 319 319 319 319 319 318 318 319 319 319 319 319 320 320 321 322 323 324 325 326 326 327 329 329 319 328 336 335 335 332 333 328 326 326 327 331 329 326 326 326 326 323 322 322 324 324 320 320 317 319 318 314 320 321 321 321 322 324 323 323 330 333 337 336 331 335 332 333 332 324 331 335 338 337 337 340 343 340 343 342 343 343 341
319 319 319 319 319 319 319 318 318 318 318 319 318 318 318 319 319 320 321 321 322 323 324 325 327 326 328 324 318 317 333 335 335 332 334 333 329 327 326 330 330 327 326 326 325 327 326 325 326 326 324 318 321 318 318 317 319 320 317 322 321 322 320 323 326 325 328 337 339 336 330 332 332 336 330 333 335 336 334 335 337 335 338 341 340 342 352 347
319 319 319 319 319 319 319 319 319 318 318 319 318 318 318 319 319 320 320 321 322 323 325 326 326 326 330 330 325 323 333 334 335 331 331 330 328 328 329 330 330 328 326 324 326 328 327 327 327 324 317 323 316 320 318 320 320 320 319 318 320 320 324 325 325 332 330 329 339 339 329 327 328 327 326 333 334 336 332 336 339 336 340 341 342 342 345 345
319 319 319 319 319 319 319 319 318 318 318 319 318 318 319 319 320 320 321 321 323 324 325 326 327 331 329 321 325 331 333 335 334 330 328 330 328 329 329 331 330 329 328 325 324 328 328 328 327 322 324 320 319 314 319 321 319 320 319 316 316 318 318 327 327 329 329 334 339 338 310 316 325 331 326 330 332 331 333 333 332 335 335 341 339 343 341 345
319 319 319 319 319 319 319 319 319 318 318 318 318 318 319 319 320 321 321 321 323 324 325 327 328 327 327 322 326 329 332 335 334 330 328 327 326 327 328 330 331 330 330 328 329 330 329 329 328 325 326 322 318 322 319 318 320 314 317 316 313 311 315 324 322 328 327 337 330 334 312 314 323 326 329 330 334 330 329 330 330 333 337 338 336 342 341 345
320 320 320 319 319 319 319 319 319 318 318 318 318 318 319 319 320 321 321 322 324 326 327 328 329 326 326 325 329 333 374 334 328 327 330 326 325 325 326 329 328 329 330 330 329 331 331 329 327 322 320 325 323 318 315 315 316 315 311 309 311 310 313 321 322 321 321 333 331 324 314 312 319 324 328 336 332 330 330 329 330 333 336 334 333 336 341 344
319 319 319 319 319 319 319 319 318 318 317 317 317 317 318 319 319 320 321 322 324 325 326 325 332 326 319 316 324 352 328 322 325 330 330 329 327 325 328 327 328 329 329 329 332 331 330 328 322 321 320 320 316 314 313 312 312 314 310 307 308 310 313 316 322 323 325 328 325 321 312 318 317 323 328 331 329 332 326 328 329 331 332 331 335 333 338 341
319 319 318 318 319 319 318 318 318 318 317 317 317 317 318 318 320 321 324 325 326 331 329 324 328 331 319 327 333 324 322 324 329 329 329 330 329 329 328 326 325 326 329 329 330 329 327 323 324 322 322 316 317 315 310 308 307 309 312 308 311 309 309 310 317 324 325 325 318 322 317 317 319 324 326 328 325 331 327 326 331 333 333 334 333 338 341 346
319 319 318 318 318 318 318 318 317 317 317 317 317 319 319 322 323 322 325 327 327 327 329 332 327 320 315 323 316 321 325 327 328 329 328 330 331 329 326 323 325 326 327 325 327 322 325 318 321 315 317 316 316 312 307 304 306 307 309 308 309 310 311 311 312 316 325 324 315 315 317 316 319 324 325 325 324 328 326 327 328 330 329 330 331 338 345 343
318 318 318 318 318 318 318 317 317 317 317 318 318 319 320 321 323 324 325 330 322 319 312 316 316 308 308 316 323 324 325 329 329 328 325 328 331 330 327 328 327 324 320 318 319 320 321 318 319 315 311 312 312 312 310 310 311 309 309 308 308 308 309 311 312 315 315 312 311 314 312 314 316 322 326 327 326 325 330 329 329 329 331 332 335 337 343 341
318 318 318 317 317 317 317 317 317 317 317 318 322 322 324 325 318 324 319 325 321 316 318 317 317 318 320 320 322 327 329 328 323 325 327 329 328 327 325 325 323 322 319 314 318 319 321 313 311 311 313 314 314 314 313 313 312 311 310 310 309 309 309 312 314 317 319 314 311 315 315 314 315 323 327 330 329 327 328 326 330 329 332 332 335 336 335 337
318 317 317 317 317 317 317 316 317 316 316 318 322 324 312 315 307 308 312 316 321 322 320 316 315 317 319 323 324 321 318 319 323 323 326 330 327 325 321 322 319 314 316 318 317 322 319 312 311 313 314 316 315 315 314 313 312 310 309 309 308 309 309 312 313 320 325 313 310 315 314 315 316 323 325 330 326 324 326 329 330 331 327 334 334 336 336 338
317 317 317 317 316 316 316 316 316 316 315 318 322 323 326 324 324 322 315 307 314 319 318 316 318 316 323 324 325 324 321 315 317 321 327 327 324 319 321 319 316 313 317 317 317 315 313 310 313 315 317 317 316 314 313 311 309 310 308 309 308 310 312 314 317 317 319 315 313 315 312 313 319 326 326 325 326 328 329 331 329 333 331 336 333 331 333 339
317 317 316 316 316 316 315 316 316 313 318 320 320 323 328 327 328 330 323 318 312 316 315 315 313 316 320 323 324 325 318 314 313 319 323 325 322 319 320 315 315 315 316 316 311 312 308 312 315 317 317 314 313 313 312 310 310 308 309 307 306 311 308 307 315 316 322 315 312 313 311 313 319 328 326 327 327 333 338 336 331 334 333 332 331 331 331 331
316 316 316 316 316 315 315 316 313 314 317 322 321 319 327 329 329 328 322 315 310 311 314 315 315 316 317 318 323 320 317 316 317 317 326 323 318 321 318 316 314 314 313 315 314 312 311 315 319 316 315 314 311 311 310 308 307 310 310 309 308 309 310 309 309 312 318 319 318 313 312 311 318 316 322 328 332 335 333 334 336 340 342 337 336 332 333 334
316 316 316 316 315 316 315 313 315 319 320 320 320 324 326 329 331 330 321 319 313 309 317 316 318 319 321 328 323 317 319 319 318 323 325 323 320 319 316 320 316 312 313 315 315 313 313 315 317 315 315 314 312 309 309 309 306 308 311 311 311 312 310 310 310 308 307 309 312 313 303 305 314 314 318 324 324 329 332 335 335 337 339 339 332 333 334 342
316 316 316 316 316 314 311 313 318 321 319 316 319 324 325 328 329 332 321 314 302 308 315 309 320 315 328 319 320 319 321 314 321 324 324 323 327 320 319 315 316 310 313 314 313 313 314 318 316 313 312 311 310 309 310 310 306 306 308 312 312 311 310 309 308 308 304 302 312 313 303 301 312 312 316 318 320 324 333 333 332 333 337 336 334 334 340 342
315 315 316 316 316 310 313 316 321 320 317 319 325 329 328 327 342 328 312 309 301 310 307 316 314 317 322 319 319 322 306 310 323 323 321 324 319 323 314 313 315 315 316 316 311 308 314 314 314 313 311 309 307 307 310 311 307 305 312 312 312 311 309 309 309 308 306 309 311 311 308 306 304 310 317 318 319 322 324 326 328 330 332 330 331 333 341 344
315 315 315 316 317 312 324 321 327 320 322 327 331 329 332 335 332 325 312 300 298 313 310 313 317 324 321 319 320 316 316 320 313 317 322 322 321 319 315 312 312 312 314 313 303 310 311 310 311 309 310 308 307 310 313 313 309 308 312 313 311 310 310 309 308 306 307 306 303 307 310 305 305 311 317 317 315 317 322 322 323 328 331 331 331 330 334 340
315 315 315 316 316 312 316 318 320 323 331 332 331 331 329 336 326 315 306 299 308 312 324 312 325 320 319 319 316 318 317 318 312 316 321 322 322 319 311 313 314 313 315 313 306 311 314 314 313 312 310 307 311 313 314 313 309 312 314 313 312 311 310 310 308 307 306 305 301 304 308 302 304 310 312 316 315 317 320 321 322 327 327 329 329 330 333 338
315 315 315 315 315 316 316 318 320 331 335 332 333 333 330 325 316 304 303 298 312 306 314 315 315 312 317 311 313 316 314 316 317 317 319 315 318 319 317 319 315 313 311 313 311 312 313 319 318 314 311 312 313 314 314 313 313 314 313 310 310 310 309 310 309 308 307 301 303 306 308 306 300 307 309 311 313 319 318 320 323 327 330 330 329 329 330 333
314 314 314 312 318 326 326 321 328 333 335 336 333 330 327 319 307 302 299 306 313 311 315 312 311 316 312 309 308 314 315 315 315 316 312 315 313 315 315 312 316 310 310 310 309 311 312 313 313 314 315 314 314 311 314 315 315 313 310 308 307 306 309 308 308 312 301 299 305 309 308 308 300 308 314 316 318 318 321 319 321 325 327 330 331 330 331 332
314 313 312 315 321 323 324 328 334 338 336 334 330 326 317 306 309 302 302 315 304 307 309 309 313 312 311 312 311 310 311 313 315 313 310 310 310 308 309 306 310 302 302 304 304 310 308 309 314 314 318 313 311 310 312 314 314 312 310 309 302 300 303 300 304 298 299 299 306 308 308 307 306 312 314 317 320 323 322 321 324 325 327 327 330 328 332 333
312 312 311 314 316 321 326 333 339 337 336 331 327 324 312 306 300 308 306 308 304 311 309 315 311 311 310 310 310 310 315 309 315 313 313 312 311 309 311 310 313 308 301 307 306 305 307 312 312 312 314 316 313 307 307 308 311 310 307 306 302 299 298 295 299 301 301 304 307 307 309 303 310 312 318 317 320 323 324 326 327 328 328 327 327 329 330 333
311 311 314 316 317 322 328 332 333 335 329 329 324 317 312 306 304 318 308 309 308 313 313 312 312 311 311 307 310 311 307 313 312 311 312 310 309 308 309 312 312 311 310 309 304 306 302 301 307 310 308 316 314 312 311 309 309 310 312 307 304 303 298 295 298 296 298 300 304 309 305 306 304 308 319 318 320 322 324 326 327 328 330 333 330 332 331 333
309 313 319 324 321 322 323 326 329 331 329 323 317 313 307 307 311 306 307 309 311 313 310 314 310 309 308 310 312 312 312 309 312 311 310 309 307 308 309 309 313 312 311 305 309 307 305 306 310 315 315 316 313 316 315 311 310 311 311 312 307 304 308 300 303 301 301 301 301 305 304 308 308 319 319 321 320 322 325 325 326 327 329 331 332 332 332 332
310 318 321 325 327 331 332 330 331 331 326 319 314 311 308 312 305 309 308 314 312 310 310 310 310 307 307 308 312 310 315 312 311 311 310 311 312 309 313 313 313 313 309 305 308 304 307 303 312 314 316 315 315 316 314 315 302 309 309 304 307 312 309 304 305 306 305 302 301 307 307 310 315 317 317 319 320 321 322 325 327 326 329 331 331 333 333 334
324 325 321 326 329 334 336 336 332 330 326 318 313 310 315 316 317 312 313 311 311 313 309 304 305 306 305 307 308 309 311 312 311 310 307 311 308 312 313 313 315 313 313 311 308 313 305 305 312 312 311 317 318 317 316 316 315 310 304 308 313 315 312 306 299 303 301 297 302 306 302 305 306 304 317 316 317 318 323 322 324 328 328 327 328 333 336 335
330 327 327 327 329 333 335 336 332 328 322 317 312 319 321 315 318 317 316 313 312 312 308 307 306 310 306 308 306 309 311 307 309 308 307 309 306 315 313 312 316 315 315 316 309 310 311 303 309 313 313 316 318 317 313 315 316 310 308 316 306 303 302 308 304 297 297 298 300 306 308 310 313 311 315 314 316 318 320 325 326 327 330 329 330 332 334 334
332 329 322 330 333 332 334 336 330 326 318 314 313 312 317 316 319 318 317 315 314 311 308 310 307 308 309 307 309 309 311 304 309 307 305 308 305 312 313 314 313 316 315 315 311 312 313 303 306 313 313 315 316 314 306 310 315 316 317 312 314 310 305 303 304 305 303 298 298 300 306 306 316 317 320 321 322 322 323 325 327 328 329 329 334 336 333 334
325 324 323 331 333 334 339 333 325 320 316 311 315 315 317 313 316 318 319 316 312 311 310 311 311 308 309 310 311 308 310 309 309 308 308 309 308 315 313 316 313 316 316 316 312 315 309 314 301 309 314 314 308 311 309 310 309 311 311 310 311 310 313 311 310 305 302 300 301 300 298 308 317 322 323 324 324 325 330 331 333 335 336 337 339 340 340 339
324 323 324 332 333 337 332 324 318 315 315 318 319 316 315 312 314 315 318 317 316 317 314 313 311 309 310 310 310 312 310 310 311 309 309 309 309 308 316 316 315 314 316 314 313 313 310 311 305 310 309 308 309 315 315 314 314 311 310 308 309 307 305 302 306 309 307 304 302 300 299 312 320 328 327 327 328 329 331 333 332 335 337 338 339 342 343 342
320 317 323 333 333 331 323 315 316 319 318 315 314 316 314 323 315 315 316 318 318 315 318 315 314 312 311 311 312 311 311 309 310 310 311 309 312 312 315 318 317 317 314 311 312 317 315 312 310 307 309 309 313 316 318 317 316 314 312 309 311 310 309 306 297 304 307 307 309 306 303 308 324 327 329 329 329 330 332 332 332 334 336 338 340 342 342 341
321 319 329 331 331 328 320 317 322 319 317 317 318 317 317 317 316 315 315 316 315 317 315 315 314 314 313 314 313 312 312 309 310 309 311 310 312 315 317 317 317 316 315 313 316 318 319 310 307 308 312 314 317 317 318 319 317 313 313 314 312 310 311 308 307 309 305 305 303 304 303 310 324 328 329 329 330 331 331 329 330 332 335 337 339 340 340 338
325 321 321 329 331 326 319 314 312 314 316 317 317 316 319 318 316 315 316 316 316 314 314 314 315 317 314 316 315 312 313 307 313 311 311 313 312 318 317 317 318 314 314 316 313 317 309 316 310 306 305 307 309 313 313 316 315 311 310 314 315 314 314 314 313 312 305 306 305 302 300 308 321 328 329 329 327 326 327 329 330 329 332 334 336 339 337 334
329 326 323 324 328 324 316 321 318 313 314 315 314 313 315 316 318 318 317 316 318 318 315 315 317 316 315 316 315 315 315 312 311 314 313 314 314 318 318 317 317 316 322 323 336 322 313 311 312 303 300 297 299 300 302 314 310 311 313 313 314 313 312 311 306 309 302 309 308 306 308 316 322 326 324 324 324 324 326 325 326 331 331 332 333 335 337 333
324 315 318 321 323 322 322 325 322 317 314 315 313 314 315 312 316 318 318 317 319 318 319 316 318 319 316 315 313 313 313 315 312 312 312 312 314 316 318 318 317 317 327 335 326 320 312 312 312 311 307 304 306 311 313 314 312 308 311 312 312 313 314 313 311 309 305 308 306 315 314 316 318 320 321 321 322 324 323 325 325 325 328 332 334 336 335 337
324 316 316 314 321 321 320 321 320 318 315 317 313 314 312 314 315 315 319 314 317 317 316 317 316 314 314 314 313 313 314 314 316 315 313 313 316 316 318 318 318 322 338 324 326 317 315 309 311 313 312 312 313 313 314 314 310 311 310 310 312 312 312 311 308 306 316 307 302 316 319 313 315 317 319 321 322 323 325 324 326 328 329 330 331 333 334 333
318 322 321 324 316 311 315 316 320 317 318 317 314 316 313 313 313 312 316 318 318 318 314 314 315 315 315 314 314 311 313 313 315 312 315 314 314 317 315 317 316 327 327 317 320 315 312 308 312 312 311 312 313 313 314 313 313 313 312 312 311 312 311 309 309 312 311 306 303 317 318 314 314 318 320 321 322 323 323 326 328 328 327 328 330 329 328 328
326 324 323 325 317 318 318 318 319 318 317 317 315 315 313 313 312 315 314 314 315 315 316 311 313 314 315 316 314 312 314 310 311 316 314 315 314 314 312 315 317 320 318 317 318 328 316 310 311 312 310 311 312 312 314 312 312 311 312 312 312 312 311 311 311 312 311 309 310 311 317 314 317 320 322 323 325 325 325 326 327 327 326 328 329 327 325 324
323 325 319 324 322 320 320 319 319 318 316 319 315 315 315 314 313 315 316 315 312 314 316 313 314 315 315 315 315 312 314 315 313 312 316 315 315 315 313 314 313 318 317 314 316 320 313 311 315 311 309 308 311 312 312 312 312 310 311 312 312 312 310 311 311 312 314 313 314 313 313 314 321 324 324 326 326 326 328 327 327 328 327 326 325 324 323 323
329 331 332 321 317 319 320 320 317 317 315 315 315 315 316 315 315 317 316 318 316 314 315 314 315 315 316 314 315 314 315 315 315 315 315 315 311 316 312 314 317 313 315 315 315 316 315 311 314 311 306 306 309 310 310 310 309 308 309 310 311 310 308 309 310 312 310 310 312 312 311 315 321 326 327 327 326 326 326 327 326 326 325 324 322 322 323 324
335 334 330 325 318 325 317 319 319 317 313 316 316 316 315 315 318 317 314 318 318 317 317 316 316 313 313 315 314 314 316 316 315 316 316 315 316 316 317 316 316 313 312 312 315 311 313 310 308 307 303 304 309 309 309 309 308 304 305 310 313 312 312 313 314 316 318 317 313 314 314 321 324 327 324 324 327 326 326 325 326 328 327 327 325 326 325 326
Wind_Speed
8 8 8 8 9 9 10 10 10 10 11 11 11 12 13 13 14 15 15 15 16 16 17 17 17 18 19 19 18 19 19 11 14 11 10 10 7 6 5 3 3 5 2 8 15 15 15 13 9 10 13 12 5 5 8 8 6 7 6 5 8 8 9 8 10 8 6 8 7 5 2 7 8 9 10 7 3 7 6 6 8 8 6 9 9 9 12 11
8 8 8 9 9 9 9 10 10 10 11 11 12 12 13 13 14 14 15 15 15 16 17 16 17 18 18 18 18 18 17 12 12 12 14 3 9 7 6 7 4 4 4 10 14 13 13 11 10 11 10 9 2 2 8 5 10 9 6 5 6 6 8 7 7 9 7 8 6 5 6 8 7 10 4 6 6 6 7 6 7 8 8 10 12 11 12 11
8 8 8 8 9 9 9 9 10 10 11 11 12 12 13 13 14 14 15 15 16 16 17 17 17 17 18 18 17 18 13 10 11 15 9 5 8 7 5 4 5 3 4 11 12 13 13 14 13 15 12 3 7 5 7 9 6 8 7 4 6 8 9 9 6 5 6 5 6 7 7 8 8 4 7 5 7 9 7 5 6 9 10 11 13 13 13 11
9 9 8 8 8 9 9 10 10 10 10 11 12 12 13 13 14 15 15 15 16 16 16 17 17 17 18 19 16 15 10 11 9 5 9 4 8 6 3 3 3 5 8 10 13 15 15 15 15 15 9 8 4 6 9 9 4 4 5 3 6 9 9 9 6 5 6 8 6 2 5 8 3 5 4 5 3 5 6 6 8 8 11 13 13 14 12 13
9 10 9 8 9 9 9 9 10 10 10 11 12 12 12 13 14 15 16 15 16 16 17 16 17 18 18 17 17 11 9 7 6 8 8 5 8 6 4 3 3 6 9 11 14 16 17 15 14 11 12 4 5 6 5 8 6 7 9 10 7 9 9 8 10 7 7 2 4 8 6 6 10 11 5 3 4 3 6 10 9 9 9 11 13 13 12 13
10 9 10 9 8 9 9 9 10 10 10 10 11 12 13 13 14 15 16 16 16 16 17 16 17 17 19 19 14 8 6 3 4 5 6 4 7 6 3 4 2 6 8 12 12 15 18 14 13 12 6 8 10 8 6 5 9 8 6 4 5 10 9 8 8 3 2 8 9 6 7 8 6 5 9 8 6 6 9 10 9 9 10 10 12 11 13 12
10 10 9 9 9 9 9 9 10 10 10 11 11 12 12 13 13 15 16 16 16 17 16 16 16 18 18 23 9 6 9 9 4 6 9 6 7 6 5 6 5 6 9 11 13 13 6 12 12 9 8 5 4 9 7 5 11 10 7 2 8 7 8 8 7 3 10 9 7 5 3 7 6 6 6 4 6 9 11 9 9 8 8 9 11 10 10 11
10 10 10 9 9 9 9 9 10 10 10 10 11 11 12 13 14 14 15 16 16 16 16 16 16 17 16 12 5 7 9 6 11 10 8 9 8 7 6 7 7 7 9 11 11 10 8 10 10 7 10 8 2 4 5 13 2 6 7 4 4 7 9 7 7 7 6 6 2 2 4 3 6 7 6 1 8 8 11 7 8 9 8 8 8 8 8 9
11 10 10 9 9 9 9 10 10 10 10 11 11 10 11 12 13 14 15 15 16 16 16 15 16 15 11 7 7 9 3 11 9 11 12 7 7 7 8 6 9 8 8 10 9 8 11 8 11 5 10 10 4 7 5 9 8 5 6 3 6 9 6 4 6 8 6 5 1 2 6 4 4 6 4 4 11 11 8 11 7 5 5 5 2 6 7 7
12 11 10 10 9 9 9 10 10 10 10 10 10 10 11 12 13 14 15 15 16 16 15 15 15 15 12 7 9 8 5 2 7 8 7 6 5 7 8 10 6 8 8 9 8 7 8 8 8 9 14 9 4 4 7 6 8 8 6 8 8 3 5 5 8 11 4 6 2 4 2 2 2 3 0 9 11 6 10 11 12 10 2 8 2 6 6 6
11 11 10 9 9 9 9 9 10 10 10 10 10 11 12 13 14 14 15 15 16 15 15 14 13 14 8 7 8 5 4 8 2 5 4 4 6 7 6 7 6 6 7 8 7 6 5 8 9 8 10 6 9 8 4 10 6 6 3 9 6 4 9 2 4 4 3 6 6 2 2 3 3 3 5 16 10 6 6 13 10 2 8 9 5 3 8 6
11 11 10 9 8 7 8 8 10 10 10 10 10 11 12 13 14 14 15 15 16 16 14 12 13 7 8 9 8 3 4 4 2 4 5 5 6 7 7 6 5 7 8 11 10 5 5 8 10 10 10 9 7 10 3 2 7 8 8 6 3 3 3 2 4 6 2 4 9 5 0 2 4 4 3 14 10 10 6 10 9 5 9 6 3 4 5 6
11 10 10 9 8 8 8 9 9 10 10 9 10 12 13 13 14 15 14 16 13 14 14 12 10 6 8 8 7 4 5 2 2 1 3 5 6 7 4 5 6 7 9 10 10 8 7 8 9 12 10 9 9 9 3 5 10 6 6 11 7 6 4 5 3 5 2 7 6 7 4 2 4 5 2 7 10 8 10 7 6 2 5 8 4 2 3 2
11 10 10 9 7 7 8 8 9 9 10 9 10 12 12 13 14 15 15 15 18 17 14 12 7 7 6 8 3 1 3 7 4 4 7 7 7 8 7 6 7 6 6 7 8 7 9 7 10 11 10 10 9 8 10 9 6 11 11 9 5 4 3 9 5 5 5 6 3 5 6 4 3 4 3 4 17 8 6 6 2 4 5 3 7 9 5 8
11 9 9 9 8 7 8 9 9 10 10 9 10 11 13 14 14 15 16 16 15 13 13 11 7 5 6 7 2 6 6 4 7 7 6 9 9 7 8 7 7 7 7 7 8 8 6 8 10 10 9 11 6 10 9 9 9 8 8 4 7 7 7 8 2 6 3 3 8 6 6 5 2 9 5 6 7 19 9 5 2 5 3 3 3 3 11 9
10 10 7 6 8 8 8 8 7 7 7 10 10 11 13 15 15 15 15 15 17 17 11 7 7 8 9 11 4 5 6 9 8 9 7 8 9 7 9 9 7 7 7 9 5 5 7 9 9 8 9 8 10 8 12 5 7 2 3 6 4 7 8 6 6 7 2 5 6 2 4 5 5 9 7 8 5 16 5 6 6 3 1 3 5 5 9 14
10 9 9 7 7 8 8 8 8 8 9 10 11 13 14 15 15 15 15 14 9 7 5 5 6 7 6 5 2 7 7 9 7 8 7 7 7 12 11 7 7 8 8 9 9 7 8 9 6 11 10 8 6 5 4 3 8 4 4 7 9 2 3 7 9 3 9 5 4 7 5 5 7 6 11 6 1 20 10 4 10 8 8 6 4 5 9 10
10 9 9 8 8 7 7 8 8 9 9 10 11 12 11 11 13 14 13 9 7 6 8 9 8 7 11 13 9 10 8 6 3 5 5 6 7 6 3 6 6 8 7 9 10 11 6 9 6 9 8 7 8 8 6 5 10 9 8 6 5 9 11 6 6 8 9 8 3 5 9 4 8 12 11 4 5 12 11 5 8 10 4 5 3 6 7 7
9 8 8 8 7 6 7 8 8 8 9 11 14 14 16 16 9 7 7 5 4 4 4 7 6 5 8 10 1 4 4 8 8 4 10 7 6 4 6 7 7 8 8 8 6 10 6 8 6 7 8 9 6 9 9 12 8 11 12 6 8 7 9 3 10 8 7 5 8 5 7 8 8 16 10 7 7 8 15 6 7 7 11 7 6 5 4 7
9 8 7 5 6 6 7 7 8 7 7 10 7 5 4 4 4 3 7 8 12 8 11 10 13 8 8 6 5 8 9 3 3 8 5 8 6 8 8 9 7 7 9 9 7 11 5 9 8 8 6 10 7 11 11 11 9 10 8 11 10 14 5 8 10 8 4 2 6 4 2 4 9 9 8 8 5 5 11 9 9 8 3 4 6 5 3 4
8 8 7 5 5 6 7 6 3 5 6 7 8 6 6 9 10 8 10 9 12 15 15 5 17 7 11 8 6 6 7 8 9 8 11 8 11 7 9 8 8 9 9 11 12 5 2 7 7 8 10 9 10 9 8 9 8 8 8 9 8 10 2 10 8 7 1 4 5 5 7 6 8 12 8 9 8 7 7 7 4 12 5 3 7 10 6 4
8 7 6 6 4 5 6 5 3 4 4 6 6 6 7 9 5 7 6 8 13 15 11 9 4 7 5 8 7 3 5 6 10 10 7 10 10 9 10 10 9 10 8 9 8 9 8 7 5 9 11 8 8 8 8 8 11 8 9 9 9 6 11 13 7 1 7 5 2 4 6 9 10 16 9 10 7 5 8 6 5 6 7 6 4 4 6 8
8 8 7 5 5 4 5 5 4 1 6 6 6 11 9 7 6 6 6 8 8 14 13 9 8 9 6 4 7 6 9 8 9 11 10 11 11 14 9 10 9 10 10 9 8 6 6 6 12 8 9 7 5 9 8 10 7 8 7 9 9 9 10 3 3 4 7 2 4 3 8 5 5 10 11 8 10 8 9 8 5 6 6 6 5 3 2 6
8 8 6 7 6 5 4 3 3 4 8 10 11 15 11 13 9 7 9 7 5 13 11 9 10 9 9 6 9 11 11 8 9 13 10 11 10 11 12 11 11 10 10 11 12 10 9 13 7 2 9 5 9 8 11 10 8 8 10 8 9 7 6 9 3 4 11 8 5 3 8 4 10 7 7 9 11 13 10 7 11 7 5 4 1 1 2 6
7 7 7 6 8 7 6 4 4 8 9 10 14 16 15 14 8 7 7 7 6 8 10 10 7 9 7 2 6 10 10 6 8 11 11 12 12 7 11 6 8 8 11 12 14 10 11 11 13 11 10 12 10 9 8 7 8 7 12 13 14 18 10 7 8 10 9 4 5 6 6 6 11 8 5 6 10 14 11 14 11 9 9 4 6 5 2 3
6 7 8 9 8 8 8 3 8 9 10 11 10 13 14 11 2 5 6 5 7 7 8 9 6 5 5 8 7 9 7 5 3 11 10 12 13 10 7 9 6 9 12 12 10 8 9 8 5 7 11 10 9 8 8 7 9 10 8 11 14 12 9 6 13 11 7 5 9 11 6 4 3 5 7 6 10 15 17 14 8 4 0 7 3 3 5 5
7 8 10 10 11 12 5 2 3 11 9 9 14 10 5 5 3 3 5 5 6 9 10 7 10 4 5 8 10 8 10 10 5 8 8 11 12 3 10 8 7 9 10 9 6 8 8 13 9 8 6 7 9 9 9 11 6 7 12 11 14 12 8 11 11 8 7 9 13 16 8 2 2 6 10 7 9 14 15 16 13 8 6 4 3 6 4 6
8 9 11 12 13 16 4 8 11 10 9 5 3 2 3 3 2 1 4 6 7 9 9 9 3 5 6 12 13 7 10 18 9 8 8 12 10 8 11 7 9 9 9 5 12 9 2 6 10 9 6 6 8 12 4 5 9 10 10 11 12 12 13 13 10 10 10 9 8 4 1 3 2 9 6 8 8 9 15 13 9 9 5 5 4 6 6 5
9 10 9 11 8 13 11 7 8 9 7 3 3 3 1 3 7 5 6 4 8 6 3 9 2 6 5 10 12 7 7 7 7 12 9 9 12 7 9 9 9 11 10 12 11 7 3 4 9 6 7 8 9 9 11 8 8 9 14 12 10 11 12 11 9 7 9 6 8 9 6 6 6 3 8 10 3 12 13 10 9 6 9 6 6 7 8 6
9 10 10 8 5 5 8 7 9 12 9 5 4 4 1 4 5 6 6 4 8 7 10 6 9 9 9 11 9 6 11 6 3 9 9 7 12 10 10 10 9 8 8 6 11 11 10 7 6 7 6 8 11 11 10 9 9 11 11 12 11 11 10 9 8 7 4 5 6 7 15 7 1 4 4 2 6 11 11 8 8 9 7 4 4 6 6 7
10 10 10 12 7 2 4 6 8 10 4 5 5 6 4 4 7 6 6 7 9 9 7 8 9 11 12 13 9 9 10 10 8 6 8 8 10 10 8 9 7 8 6 8 10 12 11 10 8 6 8 9 8 10 8 9 9 6 6 9 9 9 10 8 5 3 6 6 6 10 10 8 5 7 5 8 6 8 14 10 8 8 7 4 3 6 8 5
9 10 12 13 6 9 6 3 11 8 6 8 7 5 6 6 7 8 2 4 7 9 10 10 11 11 13 13 9 10 9 10 9 9 8 8 9 8 9 10 7 7 9 9 10 10 12 11 7 7 8 7 8 9 9 10 9 8 7 7 8 7 6 3 1 6 5 6 4 11 11 6 9 8 8 12 13 13 8 6 8 6 7 4 6 9 6 6
8 9 7 11 10 8 11 8 8 8 10 9 7 6 8 6 8 11 2 6 5 11 8 9 13 13 12 13 10 10 8 8 11 9 11 10 9 10 11 13 9 8 8 5 10 9 8 10 12 6 8 9 6 8 6 8 7 8 7 6 7 6 5 6 6 5 6 8 10 4 8 3 8 10 9 11 14 12 6 6 6 7 6 6 7 5 6 9
7 9 8 10 10 11 10 12 8 10 11 7 7 7 8 7 4 10 3 7 10 10 13 11 13 12 13 11 11 9 8 8 10 8 11 9 9 10 10 13 14 8 8 7 10 6 1 7 9 6 3 9 6 6 8 10 11 11 4 4 5 7 8 9 6 6 5 4 6 7 7 4 5 5 14 13 7 10 7 9 10 9 7 4 7 11 9 9
7 9 8 7 10 14 17 14 11 11 8 7 6 7 8 7 8 7 5 6 8 9 11 12 12 12 11 13 12 10 8 8 9 10 9 10 8 9 8 11 12 9 8 10 5 8 10 6 8 3 7 6 9 6 7 8 10 9 11 4 2 7 9 7 5 10 8 7 7 0 1 10 8 10 11 4 6 7 11 9 9 7 7 8 10 9 9 7
8 6 7 6 10 11 12 10 10 10 7 6 7 7 8 5 3 6 6 4 8 8 13 11 10 11 8 9 11 10 6 7 11 8 8 10 6 10 13 6 9 12 8 9 3 7 5 7 9 6 6 11 10 3 11 6 9 6 9 4 6 9 11 10 8 7 10 7 3 5 8 10 11 11 9 8 8 7 8 12 12 9 7 7 9 8 7 8
5 8 5 9 12 11 10 9 6 7 7 7 7 6 2 4 9 9 4 10 8 10 11 10 9 9 7 7 7 8 10 5 7 7 7 7 8 3 8 3 6 6 6 7 6 5 8 5 7 8 9 13 6 6 11 11 7 8 10 7 12 8 8 7 8 3 5 6 2 7 10 4 3 5 4 8 7 7 16 12 8 9 9 8 7 5 3 4
6 7 8 9 11 11 8 7 7 6 7 7 8 11 12 7 2 10 8 10 6 9 8 7 10 12 9 6 9 8 10 10 10 9 7 9 3 5 4 8 8 7 5 4 8 5 3 10 6 6 6 2 7 4 9 12 7 10 11 11 9 4 6 1 4 6 5 5 4 10 10 10 9 6 3 6 5 7 11 11 11 8 7 5 4 2 2 1
7 7 7 10 9 10 8 7 7 5 7 8 8 10 2 9 2 3 4 3 4 10 9 8 6 8 9 6 9 8 10 9 9 6 9 10 3 2 7 1 3 6 2 7 7 6 1 8 2 2 7 5 6 2 6 3 11 10 8 7 7 5 7 5 3 8 7 7 5 4 8 4 3 3 6 6 9 8 8 8 7 7 4 5 1 3 3 1
7 6 6 12 10 9 7 7 6 6 7 9 7 7 5 5 3 6 2 7 5 10 5 8 7 6 9 9 11 8 9 10 6 5 5 7 4 5 3 7 10 4 2 3 10 2 8 4 10 1 2 6 6 5 2 2 5 4 4 6 7 6 6 4 2 4 7 8 1 2 3 4 4 3 2 5 7 9 11 8 6 5 6 5 5 5 7 7
7 8 4 9 11 9 8 6 6 9 9 10 15 6 5 5 6 5 4 4 7 7 8 11 5 8 3 10 13 6 9 9 5 7 6 9 5 4 5 5 4 7 4 6 7 4 6 2 6 6 5 5 8 5 9 7 10 8 7 8 7 8 8 7 5 1 6 5 5 6 4 6 5 3 3 4 5 7 6 6 6 6 6 6 6 7 7 8
7 8 8 11 12 12 8 7 8 8 7 8 1 3 6 8 5 5 3 1 10 7 3 11 6 9 7 8 4 10 4 7 4 10 9 3 5 1 6 4 5 7 9 5 4 6 5 6 5 6 4 3 7 6 5 8 7 9 7 10 9 7 7 6 4 6 5 7 9 7 4 4 1 0 2 2 5 8 6 4 6 6 6 6 6 7 7 7
9 1 10 12 12 11 7 7 8 9 9 3 5 8 5 4 6 6 7 5 3 9 2 6 3 9 7 10 7 2 6 6 11 6 3 10 1 8 7 6 3 9 6 7 7 9 2 6 7 7 8 11 14 20 10 14 12 10 8 8 8 4 6 7 8 9 9 10 9 8 2 5 7 1 3 5 6 7 4 5 5 6 7 7 6 7 8 7
8 5 8 8 9 8 8 7 7 7 3 3 5 6 7 7 6 4 2 2 1 7 3 7 4 7 5 2 2 7 4 5 7 8 3 6 7 4 5 6 4 7 7 5 6 5 6 4 7 6 4 4 11 6 8 6 9 9 10 12 7 7 7 8 9 7 9 6 10 9 3 4 8 5 4 3 4 5 3 6 5 5 5 5 6 7 8 7
8 4 6 7 8 7 8 6 9 3 5 5 5 6 6 3 9 6 3 5 2 6 2 6 8 2 2 1 3 5 4 5 2 5 6 7 7 1 7 7 2 8 13 9 10 5 7 3 4 3 1 1 7 4 6 3 5 7 14 10 9 12 12 8 7 7 6 7 12 5 4 8 12 12 10 2 3 2 6 6 2 5 5 4 5 6 9 10
7 7 6 8 7 7 10 13 12 8 6 6 7 7 4 6 2 5 4 6 11 5 7 3 0 8 6 7 2 3 1 3 4 2 5 6 2 6 5 2 5 6 11 10 5 5 7 7 7 6 7 7 7 4 13 10 7 11 10 14 14 12 12 10 7 6 7 6 10 5 4 10 9 10 13 12 7 7 6 6 1 3 2 3 2 4 5 7
8 5 8 8 7 9 9 10 11 8 6 6 4 5 6 2 6 3 11 1 3 4 3 10 2 4 3 5 3 2 2 3 1 6 4 3 2 5 5 6 4 4 3 6 6 5 4 8 10 10 11 10 10 11 10 9 12 12 13 13 12 12 10 11 8 8 6 7 5 7 7 7 8 12 7 9 11 11 4 5 8 6 3 5 4 4 7 7
6 2 8 4 5 5 9 6 3 7 7 1 3 6 3 6 6 3 4 5 4 4 5 6 2 4 4 6 3 4 1 7 2 4 4 7 8 2 6 10 8 10 6 6 6 7 6 8 9 9 10 11 13 13 11 12 12 13 13 14 14 11 11 13 11 10 11 7 9 8 7 3 2 6 4 4 4 8 9 10 7 8 6 0 4 4 4 8
7 4 3 5 8 4 7 2 4 1 6 6 6 7 5 6 4 5 3 4 4 3 5 1 3 5 7 4 5 6 4 4 1 5 2 5 4 8 7 3 6 9 6 6 8 2 3 7 10 12 15 14 14 14 13 14 14 15 14 14 13 14 14 11 8 9 12 13 10 10 6 4 4 4 6 7 7 8 7 7 6 6 4 2 3 0 5 7
5 6 1 6 6 7 1 6 5 3 5 4 1 3 3 3 3 5 2 6 2 0 4 4 2 6 5 5 3 6 9 7 7 8 8 7 7 6 7 7 5 2 3 8 4 3 2 4 5 10 11 13 14 14 15 15 15 16 14 13 12 13 15 12 4 8 10 8 7 8 6 4 7 6 9 8 6 6 7 7 6 3 2 3 4 6 6 6
5 5 6 6 7 3 5 5 5 4 4 6 5 4 3 2 2 4 7 7 7 7 7 10 6 7 3 3 2 5 7 7 7 7 7 6 8 7 4 6 7 10 10 8 4 8 6 7 5 7 10 11 12 12 12 13 15 14 14 11 9 11 13 11 5 4 5 7 9 10 6 6 5 6 7 6 6 5 5 4 4 3 5 4 4 5 5 5
8 7 7 6 4 2 7 5 6 3 4 2 4 6 1 1 3 1 4 5 2 2 7 8 7 5 10 3 7 7 7 7 8 8 7 8 8 10 9 10 10 9 7 8 8 9 6 8 8 9 11 11 14 13 14 18 16 11 11 8 10 9 9 10 7 9 8 9 9 7 3 5 4 4 3 3 6 8 8 6 3 5 3 3 1 3 4 4
Wind_Direction
333 330 331 329 329 327 328 328 328 327 328 328 326 326 326 327 326 325 329 329 325 325 326 326 328 326 324 325 328 327 324 314 304 287 248 248 106 142 113 128 166 222 242 286 289 285 282 298 311 205 238 257 200 274 17 291 319 246 35 30 43 42 42 35 38 54 66 67 61 62 37 69 81 88 113 131 120 98 113 127 113 119 114 136 139 171 168 136
328 326 325 325 324 323 322 322 323 322 322 324 323 323 323 323 323 324 324 325 324 321 323 325 325 324 323 323 325 327 324 297 281 275 255 76 117 138 129 146 196 225 250 280 280 288 312 331 323 310 281 251 319 244 310 47 315 41 90 42 66 52 58 51 53 43 47 57 72 70 36 60 67 115 210 132 121 124 123 127 133 126 134 135 154 153 142 166
322 324 321 320 319 319 318 318 318 320 319 320 320 319 320 319 320 320 322 321 321 321 320 323 324 322 320 322 321 323 318 299 279 253 232 71 105 105 122 141 215 194 238 281 296 304 304 306 300 296 293 322 35 4 272 52 291 30 46 71 101 81 77 65 46 67 81 85 62 46 57 59 35 91 132 104 156 157 148 148 144 153 148 157 162 158 158 168
318 316 317 315 315 314 317 313 314 315 316 316 317 317 317 318 318 318 318 319 319 319 320 321 322 322 319 316 322 319 297 279 267 115 86 131 113 119 147 176 223 218 264 263 271 282 289 283 277 274 281 294 126 306 50 4 348 57 66 23 95 99 112 111 108 61 55 61 53 86 78 52 53 74 358 121 212 126 141 152 160 149 163 162 163 155 163 161
317 312 311 312 312 311 310 311 310 312 313 314 313 314 315 316 316 316 316 318 317 317 318 321 322 319 318 313 309 303 305 272 95 83 87 107 115 125 152 224 195 268 268 279 283 280 274 276 270 285 294 209 204 137 44 100 334 75 51 27 74 91 89 80 71 73 82 97 58 53 19 61 58 315 138 343 39 90 147 171 169 167 174 151 158 155 169 164
312 309 308 308 306 308 307 307 307 308 309 310 310 310 313 315 315 313 314 315 316 315 317 320 321 322 316 309 302 282 272 135 60 82 101 138 121 126 159 209 245 283 282 277 282 285 279 280 291 274 187 351 10 36 91 352 267 101 99 71 40 91 92 81 89 107 283 39 53 41 355 70 92 235 68 296 82 100 119 134 157 166 176 157 151 165 163 169
308 309 303 304 303 302 305 304 305 305 307 306 307 308 312 313 313 311 312 313 313 313 316 320 323 323 322 303 260 226 245 283 146 133 130 157 128 149 175 221 220 250 262 280 287 291 334 314 315 39 328 271 260 105 338 313 0 80 68 7 24 56 65 88 99 184 44 54 46 31 0 33 351 357 92 323 76 78 112 133 128 158 165 154 150 171 164 164
306 304 304 300 300 300 300 302 301 302 302 304 304 309 310 310 309 309 309 310 311 311 316 321 323 322 338 329 281 234 233 244 105 137 157 138 168 167 195 229 241 247 265 280 296 320 322 329 339 12 293 5 325 342 62 267 69 38 68 18 139 100 89 77 94 86 105 88 42 18 77 37 340 340 314 304 82 82 82 86 120 139 150 174 139 166 166 161
306 302 301 300 298 297 298 298 298 299 300 300 304 306 307 308 307 306 307 308 308 309 315 319 320 319 308 275 290 300 259 69 115 138 157 168 168 174 203 227 211 247 273 275 286 292 302 40 330 9 346 323 59 293 130 323 75 9 54 202 55 50 47 44 150 115 131 121 122 68 54 30 320 323 346 35 78 82 106 111 112 122 79 65 110 140 175 163
303 300 297 297 295 297 294 294 295 295 299 298 303 305 305 306 304 303 304 306 306 307 312 318 318 318 303 270 288 274 83 159 117 143 154 169 169 187 219 253 210 232 262 273 272 277 10 325 350 319 345 283 225 23 306 330 59 301 115 358 69 28 111 66 11 107 75 98 144 58 78 328 317 319 153 75 50 85 108 86 76 88 233 117 182 176 149 201
302 298 294 294 296 294 292 290 291 293 295 300 299 303 303 302 301 302 303 304 302 304 309 313 323 317 306 297 290 294 37 300 121 119 160 183 179 211 214 218 263 267 268 277 279 13 336 315 344 324 275 15 306 110 282 55 282 191 330 191 128 116 92 333 110 61 106 87 87 6 338 315 271 277 295 80 92 4 61 85 102 119 158 133 184 214 37 109
300 297 294 293 296 293 287 288 289 290 293 297 302 297 298 298 299 298 301 301 299 298 304 314 318 297 286 276 252 306 297 60 252 156 148 214 204 215 223 227 242 264 275 297 296 65 339 325 308 322 330 317 283 298 86 79 239 11 331 220 249 178 128 60 42 88 281 120 136 161 218 258 230 261 314 121 141 149 117 109 132 182 98 105 263 140 138 126
299 295 295 291 288 288 283 288 288 289 290 294 298 297 296 297 297 297 298 299 293 300 306 308 304 271 295 284 230 167 276 89 309 68 191 197 213 202 232 249 262 263 284 299 317 350 339 314 322 300 320 318 313 345 24 284 303 243 215 302 159 187 130 104 132 96 166 117 144 194 288 311 211 231 271 113 146 115 52 134 141 180 116 136 223 137 141 175
295 295 293 293 286 281 281 282 288 288 291 291 295 299 297 295 293 292 292 288 293 293 291 295 294 282 279 266 351 350 120 297 117 217 219 189 228 198 207 230 243 254 264 267 291 305 300 318 305 300 286 271 306 1 254 219 220 269 198 226 285 213 100 188 156 110 142 102 193 215 299 289 231 201 195 32 110 108 156 104 251 121 139 187 171 151 192 76
296 296 295 292 289 280 278 283 284 287 292 294 293 293 293 288 290 290 290 291 283 287 297 291 242 262 231 249 225 94 354 267 229 213 189 195 214 185 211 214 224 240 253 267 290 300 315 301 296 283 293 335 302 250 257 264 210 240 278 284 194 209 126 133 89 137 222 148 206 215 268 27 183 184 202 129 155 142 175 148 141 112 159 114 239 165 153 113
300 294 294 288 284 285 283 285 291 295 288 287 284 281 281 283 284 285 283 279 289 291 279 263 210 229 302 282 110 140 208 207 206 204 182 216 207 235 185 204 223 229 242 266 260 274 273 286 280 304 301 232 241 258 283 340 324 289 313 263 9 353 123 132 175 149 22 141 134 258 292 275 191 236 147 150 192 130 124 140 161 140 175 178 197 202 110 122
298 293 282 281 281 281 280 280 284 290 291 286 289 276 265 264 270 275 280 280 279 239 239 277 325 211 270 75 216 220 211 216 187 178 178 226 217 229 170 193 217 229 239 266 275 274 266 266 268 254 232 288 301 286 300 234 235 260 206 315 335 26 341 138 121 95 160 217 222 188 284 315 327 121 140 165 331 124 141 150 130 182 144 214 222 36 113 120
285 290 285 274 269 272 271 270 275 276 283 287 279 291 290 293 300 298 266 234 239 244 236 252 268 293 237 262 229 214 205 131 120 182 182 190 268 351 174 198 208 250 240 248 226 257 229 252 235 274 292 245 230 252 233 311 6 330 352 298 8 339 283 115 151 170 175 168 270 259 226 300 278 140 135 122 68 108 141 173 161 162 248 158 164 116 116 129
292 286 293 280 266 256 265 268 270 280 283 286 279 275 272 273 267 245 273 193 206 183 214 183 190 219 17 171 192 129 154 117 196 170 184 196 200 226 219 224 228 218 231 231 204 221 217 264 256 271 258 240 0 320 350 16 340 346 338 344 275 268 301 91 82 60 39 15 301 328 332 345 20 130 122 135 98 134 149 165 152 193 168 182 152 144 143 138
293 285 279 286 270 253 265 270 273 279 299 284 242 228 215 192 187 188 204 233 234 249 318 152 198 223 196 152 153 75 72 87 217 208 163 208 184 212 231 228 204 239 250 236 197 209 212 250 260 259 286 301 354 3 333 345 333 308 288 278 278 264 94 75 63 58 76 276 241 195 288 335 301 119 141 147 116 82 122 150 175 85 357 79 130 155 163 179
288 283 267 263 251 253 258 270 311 301 309 274 284 244 197 177 182 182 175 218 218 244 266 188 203 268 357 71 87 205 200 173 237 192 212 151 217 183 206 211 225 220 225 251 268 89 224 271 275 289 284 304 15 326 303 312 329 302 294 302 316 314 13 82 91 141 101 357 293 35 311 298 249 142 159 126 139 107 89 47 36 120 114 130 113 148 198 211
282 269 256 233 222 240 259 262 275 297 287 280 268 228 268 339 7 349 196 196 207 235 227 272 323 277 204 289 358 47 210 165 209 179 188 162 197 215 155 215 214 234 207 238 250 260 236 240 245 248 267 358 342 318 280 265 268 276 287 297 294 323 336 91 115 123 110 258 267 67 326 302 46 108 141 134 97 76 68 83 89 343 119 110 119 164 152 177
271 261 250 239 223 214 246 248 247 264 247 220 219 240 258 323 333 349 313 298 220 195 233 226 221 237 208 227 224 232 230 183 184 187 166 198 179 222 167 203 219 238 244 220 251 219 250 235 239 286 20 322 285 292 318 277 275 277 276 249 263 320 289 128 167 142 172 272 320 44 301 283 137 106 99 76 93 87 81 78 44 49 112 131 141 170 205 191
265 250 246 234 223 209 189 203 188 225 238 224 244 246 273 313 313 337 297 258 195 173 216 209 227 207 224 227 167 208 225 162 215 172 146 208 221 189 246 195 214 235 249 254 232 253 273 276 344 17 295 337 300 313 308 310 285 241 225 259 274 259 272 355 350 188 181 191 159 231 286 275 129 167 93 95 91 98 90 89 81 53 42 68 26 289 258 11
254 240 229 213 212 189 167 151 220 219 202 223 251 257 263 274 285 322 304 268 218 168 204 198 239 239 196 98 161 212 217 168 230 162 167 204 214 201 224 246 290 235 245 244 265 246 239 260 294 293 252 252 289 293 272 272 278 279 260 245 253 240 264 301 5 297 297 121 186 239 306 34 101 119 118 136 113 107 100 70 60 43 0 286 202 217 206 53
242 228 211 199 185 171 126 199 224 206 186 219 235 235 237 254 353 4 282 271 166 148 150 211 167 165 88 191 157 232 272 198 224 154 171 200 218 233 182 243 207 244 216 229 256 271 277 270 245 324 343 327 295 273 285 298 268 266 21 327 343 8 349 323 269 275 290 320 170 245 255 120 144 120 147 133 101 102 102 103 93 62 178 272 244 81 68 70
227 214 203 188 178 138 180 117 16 181 204 222 234 239 189 239 44 272 252 227 192 151 183 112 185 119 251 148 194 184 213 143 105 101 190 188 234 174 286 210 208 267 297 340 326 237 213 265 283 241 266 290 280 274 232 218 266 266 30 343 348 343 329 295 319 320 289 251 251 208 229 87 194 91 84 66 99 107 103 108 126 168 151 271 159 106 123 126
218 204 203 191 189 196 3 317 312 204 215 76 79 149 239 59 14 244 265 245 137 175 162 156 310 118 228 166 216 188 34 122 189 163 219 142 240 163 235 278 245 219 221 246 253 56 261 260 227 263 251 256 270 258 341 341 293 312 325 4 335 324 313 316 311 294 288 300 295 262 289 235 34 136 122 111 125 118 103 99 98 107 103 152 99 76 84 86
206 198 198 195 197 230 284 300 313 292 5 17 39 254 165 123 238 234 251 292 123 172 33 153 170 204 195 168 215 238 173 203 302 141 172 156 209 245 209 218 265 279 249 218 247 235 116 268 3 285 225 243 234 274 8 333 303 285 326 330 300 287 277 278 283 295 296 317 324 321 304 274 114 166 146 96 99 93 89 95 107 130 156 156 148 139 118 114
201 193 191 168 164 218 242 230 241 253 303 356 324 329 273 209 206 232 210 237 165 156 195 92 198 181 185 171 201 178 214 153 23 152 152 199 187 233 271 317 286 270 257 263 264 275 291 314 343 285 276 280 308 326 326 331 301 314 295 297 279 257 246 245 241 248 301 302 300 270 256 285 75 96 100 104 84 98 118 129 135 139 109 102 137 122 78 84
200 192 191 178 199 229 214 224 224 234 298 350 304 266 238 208 222 236 254 95 194 110 156 155 170 164 183 185 181 186 214 141 159 196 159 213 182 208 238 221 237 288 271 259 241 231 232 234 224 214 242 278 282 293 290 249 253 275 283 280 301 271 246 218 257 344 285 274 260 284 326 10 1 30 13 95 112 128 136 137 126 134 137 113 59 56 63 59
199 193 197 196 303 333 247 353 358 336 345 312 307 238 207 198 223 243 216 154 233 151 195 167 161 178 179 196 198 172 193 158 183 189 191 191 178 195 202 252 171 232 226 227 235 207 231 230 217 230 176 244 273 271 248 241 230 232 251 255 271 305 319 303 143 244 237 267 271 282 285 104 81 122 110 84 69 55 64 106 128 137 108 103 86 65 38 37
200 198 211 241 276 267 262 279 329 334 316 296 269 234 218 228 234 220 178 173 140 163 154 176 157 177 183 200 172 190 173 205 154 196 209 178 222 187 216 231 201 235 295 230 258 181 223 216 174 247 172 176 279 263 275 249 225 206 251 256 242 274 285 272 266 271 281 253 284 252 70 63 112 88 91 88 83 73 67 95 79 75 68 25 76 97 73 55
192 177 196 221 234 250 283 308 299 316 318 298 252 228 238 247 263 25 127 212 129 194 133 183 153 181 184 209 153 194 165 207 154 190 208 185 206 207 199 217 247 281 226 261 286 291 221 153 196 211 308 110 210 247 279 312 315 281 296 251 304 307 309 323 315 297 308 321 260 288 305 43 127 73 88 87 81 113 122 92 86 79 68 53 42 46 51 45
167 204 232 234 226 250 249 260 272 277 292 279 235 241 240 228 237 166 166 91 110 140 160 141 169 180 179 236 139 191 231 152 202 175 208 226 185 244 214 195 194 225 281 291 8 313 295 327 97 165 90 201 260 299 8 298 285 272 280 253 254 349 299 241 352 325 323 323 335 47 43 128 93 89 89 84 106 98 104 114 106 84 69 68 41 34 34 42
147 212 209 247 226 248 222 226 235 246 258 259 259 240 240 286 350 202 130 133 115 182 136 163 161 198 164 218 127 209 163 289 168 228 182 239 191 212 210 253 179 176 247 250 61 277 1 298 71 157 242 284 262 288 256 281 275 0 334 262 352 334 319 340 306 266 291 259 252 338 121 107 97 102 99 96 112 124 122 95 64 45 53 61 60 39 20 26
219 145 207 223 228 232 217 198 206 227 239 261 274 263 312 266 316 69 167 176 163 139 151 180 159 205 190 152 155 208 159 262 166 220 200 210 231 249 359 78 327 70 257 312 302 247 292 287 144 282 251 219 254 315 299 295 280 279 266 353 353 298 310 289 282 309 286 315 8 79 88 76 163 89 342 103 91 111 100 108 99 72 43 39 55 39 21 7
202 204 247 232 209 211 191 185 210 226 252 257 260 269 274 232 263 12 21 110 167 140 189 207 137 245 175 208 152 193 147 229 143 199 246 157 334 58 139 308 145 263 313 261 273 54 5 282 145 201 252 108 161 247 258 240 259 280 284 343 298 330 285 323 350 299 302 280 321 102 86 54 10 55 28 72 55 42 38 30 85 98 88 67 50 146 138 324
278 244 236 216 183 176 162 184 211 236 244 249 272 270 228 20 52 167 210 325 181 157 213 182 151 210 277 225 140 191 170 226 139 210 244 144 216 145 269 272 172 184 246 296 276 308 281 277 188 126 273 17 306 181 271 277 190 220 290 263 228 254 273 305 339 322 334 310 295 74 70 96 351 350 350 8 15 7 61 86 37 62 83 107 80 330 94 40
240 224 223 139 156 151 145 187 218 229 240 246 254 220 264 140 147 88 252 229 163 216 242 187 134 174 216 256 141 202 172 232 158 189 251 120 206 145 286 145 300 52 236 217 277 298 285 64 302 97 279 301 296 224 290 38 326 258 262 320 333 291 8 333 118 4 318 307 0 242 221 144 141 113 43 20 11 34 48 71 73 58 62 65 54 25 16 9
224 270 106 147 140 142 164 197 225 223 234 247 247 247 272 96 162 150 188 298 306 8 329 324 143 247 157 256 155 213 161 246 198 206 164 127 233 200 124 332 112 264 105 264 247 209 257 168 274 303 250 63 291 323 339 319 343 308 330 311 333 325 318 311 314 170 292 325 298 305 355 114 85 50 52 80 69 59 65 81 81 78 73 69 64 57 37 24
249 248 155 155 143 160 185 205 229 230 256 274 188 188 138 311 103 107 154 233 309 153 225 319 86 230 164 260 326 161 199 184 253 280 150 319 156 118 84 292 221 280 300 234 242 43 326 4 311 267 286 345 282 37 286 326 313 295 312 304 317 333 308 299 322 307 282 278 297 271 288 96 335 76 282 359 80 99 98 103 105 94 82 76 74 62 53 34
228 310 108 158 156 181 203 257 256 234 219 143 53 81 134 272 97 161 166 205 175 326 108 320 77 338 69 358 351 212 178 205 202 221 6 171 246 50 39 319 55 259 258 301 271 34 327 272 270 285 315 331 327 349 335 16 346 307 283 264 251 285 17 316 298 332 318 321 311 321 35 123 120 231 45 17 28 65 74 41 55 79 79 78 74 85 75 43
258 147 163 152 176 188 241 243 215 230 135 189 218 77 300 107 171 182 120 250 352 206 144 173 199 340 61 296 71 319 107 304 351 24 332 13 70 62 73 291 337 253 241 70 304 69 278 62 323 326 335 332 300 280 326 325 338 353 320 296 340 323 299 312 314 306 300 327 330 315 18 165 122 130 110 159 94 69 78 78 23 64 61 66 79 81 88 54
286 186 148 161 183 203 239 255 288 238 116 178 132 173 115 39 16 40 87 99 325 80 211 28 357 183 142 199 336 344 21 300 24 247 312 266 106 47 89 306 313 281 36 32 348 5 295 275 211 255 151 341 296 326 318 35 304 300 278 291 305 327 312 309 303 336 316 346 323 338 67 97 132 146 130 130 104 291 315 69 105 79 59 42 59 76 108 111
254 184 155 156 195 209 238 259 263 270 165 159 195 138 132 105 147 79 324 72 347 49 27 146 336 304 125 227 129 278 133 168 291 8 199 253 193 154 76 296 273 343 29 18 332 291 279 283 278 280 294 291 294 261 228 255 212 236 290 306 299 296 308 301 306 289 300 356 309 74 21 134 132 149 155 162 180 176 192 175 17 73 124 90 60 81 79 107
311 248 158 183 182 215 236 227 227 212 173 176 166 173 157 120 84 110 335 127 287 49 55 338 88 264 51 322 291 177 290 331 255 316 255 293 183 118 133 285 247 103 45 291 254 291 279 284 277 272 263 271 277 270 274 271 278 277 278 280 287 291 291 300 306 310 322 299 308 151 138 174 181 181 173 167 164 165 170 118 147 132 56 240 145 134 83 66
253 213 184 160 191 192 243 223 256 189 123 340 112 291 129 177 174 147 199 35 151 302 285 160 305 356 34 354 66 272 215 261 93 251 26 270 311 1 261 163 264 132 188 263 225 220 260 277 283 288 274 275 283 293 292 279 274 282 281 290 294 302 295 287 306 313 313 293 313 156 178 105 25 91 155 150 172 162 154 150 134 153 185 185 9 48 73 68
244 264 229 144 228 213 217 250 264 100 166 216 126 238 199 197 166 63 347 140 306 93 317 106 350 50 25 23 357 319 34 287 353 336 278 341 339 355 305 258 240 175 195 256 265 280 339 269 297 300 302 299 298 294 295 292 291 285 274 268 277 293 305 303 288 307 309 308 306 307 76 55 49 79 106 103 50 63 77 59 44 29 39 332 54 82 75 64
337 3 279 172 260 257 142 173 240 191 178 41 250 245 115 266 148 179 157 339 135 348 245 261 130 48 15 348 328 15 53 18 355 329 24 333 299 270 317 312 330 312 35 284 355 53 115 321 335 295 287 280 272 278 282 276 277 282 286 269 258 273 283 278 308 303 327 327 343 340 2 2 61 45 70 75 79 80 61 51 44 62 45 354 80 83 48 32
291 279 314 290 235 175 203 211 201 201 117 172 222 157 233 119 74 43 62 345 9 13 5 29 23 311 158 327 22 39 40 5 332 348 323 312 288 355 319 324 357 308 305 307 268 288 268 274 270 279 289 288 287 275 282 279 261 266 283 278 271 272 280 295 309 10 329 316 318 312 330 52 76 79 72 77 94 90 89 96 104 353 42 49 27 35 47 35
337 304 262 236 258 101 245 199 200 185 186 121 307 169 319 145 49 251 204 109 72 42 7 349 8 313 307 274 74 35 8 332 333 318 314 298 285 285 283 290 294 294 307 295 320 296 303 296 294 298 293 293 298 306 297 301 311 305 288 342 7 34 1 355 331 358 22 3 343 22 90 172 103 103 122 71 65 70 56 55 51 62 12 16 328 44 2 20